Theta_e
313 313 313 313 312 311 310 310 309 308 308 308 307 307 307 306 307 307 308 309 309 309 310 310 310 310 310 310 309 309 309 309 308 307 306 305 304 303 302 302 302 302 302 303 303 303 303 303 303 303 304 304 304 304 304 304 304 305 305 305 305 305 304 304 304 303 303 302 302 302 302 302 302 302 302 302 302 302 302 302 302 302 302 302 303 303
312 312 312 311 311 310 309 308 308 307 307 307 306 306 306 306 306 307 308 308 309 309 309 309 309 309 309 308 308 307 307 307 306 306 305 304 303 302 302 301 301 302 302 302 302 302 302 302 302 303 303 303 303 303 303 303 303 303 303 303 303 302 302 302 301 301 301 301 301 301 301 301 301 301 301 301 301 301 301 301 301 301 301 302 302 303
310 310 310 310 309 308 307 307 306 306 306 306 306 305 305 306 306 307 307 308 308 308 309 309 308 308 307 307 306 306 306 306 305 305 304 303 302 302 301 301 301 301 301 301 301 301 301 301 301 301 301 301 302 301 301 301 301 301 301 301 301 301 300 300 300 300 300 299 300 300 300 300 300 300 300 300 300 300 300 300 300 300 301 301 301 302
308 308 308 308 307 307 306 305 305 304 304 305 305 305 305 305 306 306 307 307 308 308 308 308 307 307 306 306 305 305 304 304 304 304 303 302 301 301 301 300 300 300 300 300 300 300 300 300 300 300 300 300 300 300 300 300 300 300 300 300 300 300 299 299 299 299 299 299 299 299 299 299 299 299 299 299 299 299 299 299 299 300 300 300 300 301
307 307 307 306 306 305 304 304 304 303 303 303 304 304 304 305 305 305 306 306 307 307 307 307 306 306 305 305 304 303 303 303 303 302 302 301 301 300 300 300 300 300 300 299 299 299 299 298 298 298 299 299 299 299 299 299 300 300 300 299 299 299 298 298 298 298 298 298 298 298 299 299 299 299 299 299 299 298 298 298 298 298 299 299 299 300
306 306 306 305 304 303 303 303 303 302 302 302 303 303 303 304 304 305 305 305 306 306 306 306 305 305 304 304 303 303 302 302 302 302 301 300 300 300 300 299 299 299 299 299 298 298 298 297 297 297 297 297 297 298 298 298 298 298 298 298 298 298 297 297 297 297 297 297 297 297 297 297 297 297 297 297 298 297 297 297 297 297 298 298 298 298
305 304 304 304 304 303 302 302 302 302 302 302 302 302 302 303 303 304 304 304 305 305 305 305 304 304 304 303 303 302 302 301 301 301 300 300 300 300 299 299 299 299 298 298 297 297 297 296 296 296 296 296 296 296 296 297 297 297 296 296 296 296 296 296 296 296 295 295 295 295 295 295 294 294 295 295 296 296 296 296 296 296 297 297 297 297
304 303 303 303 302 301 301 301 301 301 301 301 301 301 301 301 302 302 303 303 304 304 304 304 303 303 303 303 302 302 301 301 300 300 300 300 299 299 299 299 299 298 298 297 297 296 296 295 295 295 295 295 295 295 295 295 295 294 294 294 294 294 294 293 293 293 292 292 291 291 290 290 290 290 291 291 293 294 295 295 295 296 296 296 296 296
304 302 302 302 301 300 300 300 300 300 300 301 300 300 299 299 300 300 301 301 302 302 302 302 302 302 302 302 301 301 301 300 300 300 299 299 299 299 299 299 299 298 298 297 296 296 295 295 294 294 294 294 294 293 293 293 292 292 291 291 290 290 290 289 289 289 288 288 287 287 287 287 287 287 287 288 289 291 293 294 294 295 295 295 296 296
304 302 301 301 300 300 299 299 299 299 299 300 300 299 299 298 298 298 299 299 300 301 301 301 301 301 301 301 301 300 300 300 300 299 299 299 299 299 299 299 299 298 297 296 296 295 295 294 294 294 293 293 293 292 292 291 290 289 288 288 287 287 286 286 286 286 286 286 286 287 287 287 287 286 286 286 287 289 291 292 293 294 294 295 295 295
303 302 301 300 300 300 300 299 298 298 298 299 299 299 299 299 298 298 298 298 298 299 300 300 300 300 300 300 300 300 300 299 299 299 299 299 299 299 299 299 298 298 297 296 295 295 294 294 293 293 293 292 292 291 290 289 288 288 287 286 286 285 285 285 285 285 285 286 287 287 288 288 288 288 287 286 287 288 289 291 292 293 293 294 294 295
303 302 301 300 299 299 299 298 298 298 298 298 298 298 298 298 298 298 298 297 297 298 298 299 299 300 299 299 299 299 299 299 299 299 299 299 299 299 299 298 298 297 296 295 295 294 294 293 293 292 292 291 291 290 289 288 288 287 286 286 285 285 284 284 284 285 285 286 287 288 289 289 289 289 289 288 288 288 288 290 291 292 293 293 293 294
303 302 301 300 299 298 298 297 297 297 297 298 298 298 298 298 298 298 298 297 297 297 297 298 298 298 299 299 298 298 298 298 298 298 298 299 299 299 298 298 297 296 295 294 294 293 293 293 292 292 291 291 290 289 289 288 287 287 286 285 285 284 284 285 285 286 286 287 288 288 289 289 290 290 290 290 289 289 288 289 290 291 292 292 293 293
302 301 300 299 299 298 297 296 296 296 297 298 298 299 298 298 298 298 298 297 297 296 297 297 297 297 297 298 298 297 297 297 297 298 298 298 298 298 297 297 296 294 294 294 293 293 293 292 292 291 291 290 290 289 288 288 287 287 286 285 284 284 285 286 286 287 287 287 288 288 289 289 290 290 291 291 290 290 289 289 289 290 291 292 292 292
302 301 300 299 299 298 297 296 296 297 297 298 299 299 299 298 298 298 298 297 296 295 296 296 296 296 296 296 297 297 296 296 296 296 297 297 297 297 297 296 295 294 294 293 293 293 293 292 292 291 290 290 289 288 288 288 287 286 286 284 284 285 286 287 287 287 287 288 288 288 289 289 290 290 290 291 290 290 290 289 289 290 290 291 291 292
302 301 301 300 300 299 298 297 297 298 298 298 299 299 299 298 298 298 297 296 295 294 294 294 294 294 294 295 296 296 296 296 295 295 295 296 296 296 296 295 294 294 294 293 293 293 292 292 291 290 290 289 289 288 288 287 287 286 285 284 285 286 287 287 288 288 287 288 288 288 289 289 290 290 290 290 290 290 290 289 289 290 290 290 291 291
302 302 302 302 301 300 299 298 298 298 298 298 299 299 299 298 298 298 297 296 294 294 294 294 294 294 294 294 294 295 296 295 295 294 294 294 295 296 296 295 294 293 293 293 293 293 292 291 290 289 289 288 288 288 287 287 286 285 284 285 286 287 288 288 288 288 288 288 288 288 289 289 289 290 290 290 290 290 290 289 289 289 290 290 290 290
302 302 302 303 302 302 300 299 299 299 299 299 299 299 299 298 298 297 297 296 295 294 295 295 295 296 296 294 294 294 295 295 295 294 293 293 294 295 295 295 294 293 293 293 293 292 291 290 289 289 288 288 287 287 287 286 285 284 285 286 287 288 288 288 288 288 288 288 288 288 289 289 289 289 290 290 290 289 289 289 289 289 289 289 290 290
303 302 302 303 303 302 301 300 299 299 299 299 299 299 298 298 297 297 296 296 295 295 295 295 296 297 297 296 295 294 294 295 294 293 292 292 292 294 294 294 293 293 293 293 292 292 291 290 289 288 288 287 287 287 286 285 285 285 286 287 288 289 288 288 288 288 288 288 288 288 289 289 289 289 289 289 289 289 289 289 289 289 289 289 289 289
303 303 302 302 303 302 302 301 300 299 299 298 298 298 297 297 297 296 296 296 295 295 296 296 296 297 297 295 294 294 294 294 294 293 292 291 291 292 293 293 292 292 292 291 291 291 290 289 288 288 287 287 287 286 285 285 285 286 287 288 289 289 289 288 288 288 288 287 287 288 289 289 289 289 289 289 289 289 289 289 289 289 289 289 289 289
303 303 302 302 302 302 302 301 300 299 299 298 298 297 297 296 296 296 296 295 295 295 295 296 296 296 295 294 293 294 294 294 293 292 291 290 290 291 292 292 292 291 290 290 290 290 289 289 288 288 287 287 286 285 284 285 286 287 288 288 289 289 289 288 288 288 287 287 287 288 289 289 289 289 289 289 289 289 289 289 289 289 289 289 289 289
303 303 302 302 302 302 302 302 301 300 299 299 298 297 296 296 295 295 295 295 295 295 296 297 296 295 293 293 293 294 294 294 293 292 291 290 289 289 291 291 291 290 289 289 289 289 289 288 288 287 286 286 285 285 284 285 286 287 288 288 288 289 289 288 288 288 287 286 287 288 288 288 288 288 288 288 288 288 288 289 289 289 289 289 289 289
302 302 302 302 302 302 302 301 300 299 299 299 298 297 297 296 296 295 295 295 295 295 295 294 293 293 293 293 293 293 294 293 293 292 291 290 289 289 290 290 289 289 288 288 288 288 288 288 287 287 286 285 285 284 284 285 286 287 287 288 288 288 289 288 288 287 286 286 287 288 288 288 288 288 288 288 288 288 288 288 288 288 288 288 289 289
301 301 301 301 301 301 301 301 300 299 298 298 298 297 297 296 296 296 295 295 295 295 294 293 292 292 292 292 292 292 293 293 292 291 291 291 290 289 289 289 288 288 288 287 287 288 288 287 287 286 285 285 284 284 284 285 286 287 287 287 288 288 289 288 288 287 286 287 287 288 288 288 288 288 288 287 287 288 288 288 288 288 288 288 288 288
300 300 300 300 300 300 300 300 299 299 298 298 297 297 296 296 295 295 295 295 294 294 293 292 291 290 289 290 290 291 291 292 291 291 291 291 289 287 288 288 288 288 287 287 287 287 287 286 286 285 284 284 284 284 284 284 285 286 286 287 287 288 289 288 288 287 286 287 288 288 288 288 287 287 287 287 287 287 287 287 287 287 288 288 288 288
299 299 299 299 299 299 299 299 299 299 298 298 297 297 296 295 295 295 294 294 293 293 292 291 291 289 288 288 288 289 290 291 291 291 290 290 288 286 287 288 288 287 287 287 287 287 286 285 285 284 284 284 284 284 284 284 284 285 285 286 287 288 289 288 288 287 288 288 288 288 288 288 287 287 287 287 287 287 287 287 287 287 287 287 287 288
298 299 299 298 298 298 298 299 298 298 298 298 297 297 296 295 294 294 293 292 292 292 292 292 291 290 289 288 288 288 289 290 290 290 290 289 287 286 286 287 287 287 286 286 286 286 285 284 284 284 284 284 284 284 284 283 283 284 284 285 287 288 289 288 288 288 288 288 288 288 288 288 288 288 288 287 287 287 287 287 287 287 287 287 287 287
298 298 298 298 298 298 298 298 298 297 297 297 297 296 296 295 294 293 292 292 292 292 292 293 292 290 289 289 288 288 288 289 289 290 289 289 288 286 286 286 286 286 285 285 285 285 284 284 284 284 284 284 284 284 284 283 283 283 283 285 286 288 289 289 288 288 288 288 288 288 288 288 288 288 288 287 287 287 287 287 287 286 287 287 288 288
297 297 297 297 297 297 297 297 296 296 296 296 296 295 295 294 294 293 292 292 292 292 293 293 292 291 290 289 288 287 287 287 288 289 289 289 288 286 286 286 286 285 285 284 284 284 284 284 285 284 284 284 284 284 284 284 283 283 283 284 286 288 289 289 288 288 288 288 288 288 288 288 288 288 287 287 287 287 287 287 287 287 287 288 288 288
295 296 296 296 296 296 296 295 295 295 295 295 295 294 294 294 293 293 292 292 292 292 293 293 293 291 290 288 288 287 287 287 288 289 289 288 287 286 285 285 285 285 285 284 284 284 284 284 284 284 284 284 284 284 284 284 284 283 283 285 287 288 289 289 288 288 288 288 288 288 287 287 287 287 287 287 287 287 287 287 287 287 288 288 288 288
294 294 294 295 295 294 294 294 294 293 293 293 293 293 293 293 293 293 292 292 292 293 293 293 292 291 289 289 288 288 288 287 287 288 288 288 287 286 285 284 284 285 285 285 285 285 285 285 284 284 284 284 284 284 284 284 284 284 285 287 288 289 289 288 288 288 288 287 287 287 287 287 287 287 286 286 286 286 286 286 286 287 287 288 288 288
294 294 293 293 293 293 293 293 292 292 292 292 292 292 292 292 292 292 292 292 292 293 293 292 291 290 290 290 290 290 289 288 287 288 288 287 286 285 285 284 284 284 285 285 286 286 286 286 285 284 284 284 284 284 284 283 284 285 287 288 288 288 288 288 288 287 287 287 287 286 286 286 285 285 285 285 285 285 285 286 286 286 287 287 287 288
293 293 293 292 292 292 292 292 291 291 291 291 291 291 291 292 292 292 292 292 292 292 292 292 291 290 290 290 290 289 288 288 288 288 287 287 286 285 285 284 284 284 285 285 286 287 287 286 285 284 284 284 284 284 283 284 285 286 288 288 288 288 288 287 287 287 287 286 286 285 285 284 284 284 284 284 284 284 284 284 285 285 285 286 287 287
292 292 292 291 291 291 291 290 290 290 290 290 290 291 291 291 291 291 291 291 291 292 292 291 291 290 290 290 289 287 287 287 288 288 288 287 286 285 285 284 284 284 284 285 286 286 286 286 285 285 284 284 284 284 284 284 285 286 288 287 287 287 287 287 287 286 286 286 285 285 284 284 284 284 284 284 283 283 283 283 283 284 284 285 285 286
291 291 291 291 290 290 290 289 289 289 289 289 289 290 290 290 290 290 291 291 291 291 291 291 290 290 290 289 288 286 286 287 287 288 287 287 286 285 284 284 284 284 284 284 285 285 285 286 286 285 285 284 284 284 284 284 285 287 287 287 286 286 286 286 286 286 285 285 285 285 284 284 284 284 284 284 284 284 283 283 283 283 283 283 284 284
291 291 290 290 290 289 289 288 288 288 288 288 288 288 289 289 289 289 290 290 290 290 290 290 290 289 289 288 288 287 286 286 287 287 287 286 286 285 284 284 284 284 284 284 284 285 285 285 286 286 285 285 285 284 284 284 285 286 287 287 286 286 286 286 285 285 285 285 284 284 284 284 284 284 284 284 284 284 284 283 283 283 282 282 283 283
290 290 290 290 289 289 288 288 288 287 287 287 287 287 287 287 288 288 289 289 290 290 290 289 289 289 288 288 287 287 287 287 286 286 286 286 286 285 284 284 284 284 284 284 284 285 285 285 285 286 286 286 285 285 284 284 285 286 287 287 286 286 285 285 285 285 285 285 284 284 284 284 284 284 284 284 284 284 284 283 283 282 282 282 282 282
290 290 290 290 289 289 288 288 288 287 287 286 286 286 286 287 287 287 288 288 288 289 289 288 288 288 287 287 287 286 286 286 285 285 285 285 285 285 284 284 284 284 284 284 284 285 285 285 285 285 286 286 286 285 285 284 284 285 286 286 286 286 286 286 286 285 285 285 285 285 284 284 284 283 283 283 283 283 283 283 282 282 282 282 282 282
290 290 290 289 289 289 288 288 287 287 287 286 286 286 286 286 287 287 287 287 287 287 287 287 287 287 286 286 286 285 285 285 284 284 284 284 284 284 284 284 284 284 284 284 285 285 285 285 285 285 285 285 286 286 285 285 284 284 285 285 286 286 286 286 286 286 285 285 285 285 284 284 283 283 283 283 283 282 282 282 282 282 282 282 282 282
289 289 289 289 289 289 289 288 287 287 286 286 286 286 286 286 286 286 286 286 286 286 286 286 286 285 285 285 285 284 284 284 284 284 284 284 284 284 284 284 284 284 284 284 284 284 284 285 285 285 285 285 286 285 285 284 284 284 284 284 284 284 285 285 285 285 285 285 284 284 284 283 283 283 282 282 282 282 281 281 281 282 282 282 282 282
289 289 289 289 289 289 288 287 287 286 286 286 286 286 286 286 286 285 285 285 285 285 285 284 284 284 284 283 283 283 283 283 283 283 284 284 284 283 283 284 284 284 284 284 284 284 284 284 285 285 285 285 285 285 285 284 284 284 284 284 284 284 284 284 284 284 284 283 283 283 283 282 282 282 281 281 281 281 281 281 281 282 282 282 282 283
289 289 289 288 288 288 287 287 286 286 286 286 286 286 285 285 285 285 284 284 284 283 283 283 283 282 282 282 282 282 282 282 283 283 283 283 283 283 283 283 283 283 283 283 283 284 284 284 285 285 285 285 285 285 285 284 284 284 284 284 284 284 283 283 283 283 283 282 282 282 282 281 281 281 281 281 281 281 282 282 282 282 282 282 282 282
289 288 288 288 287 286 286 286 286 286 286 286 286 285 285 285 285 285 284 283 283 283 282 282 282 282 281 281 281 282 282 282 282 282 282 282 282 282 282 282 282 282 282 283 283 283 283 284 284 285 285 285 285 285 284 284 284 284 284 284 284 284 284 283 283 283 283 282 282 282 281 281 281 281 281 282 282 282 282 282 282 282 282 282 282 282
289 288 287 287 286 286 286 286 286 286 286 285 285 285 285 285 285 284 284 283 283 283 282 282 282 282 281 281 281 281 281 281 282 282 282 282 282 282 282 282 282 282 282 282 282 283 283 283 284 284 284 284 284 284 284 284 284 284 283 283 283 283 284 284 283 283 283 282 282 282 281 281 281 282 282 282 282 282 282 282 282 282 282 282 282 282
288 287 286 286 286 285 285 285 285 285 285 285 285 285 285 285 284 284 284 283 283 283 283 282 282 282 282 282 281 281 281 281 281 281 281 281 281 281 281 281 281 281 281 281 282 282 282 283 283 283 283 283 284 284 284 284 284 284 283 283 283 283 283 283 283 283 283 282 282 282 281 281 281 281 282 282 282 282 282 282 282 282 282 282 283 283
287 286 286 285 285 285 285 285 285 285 285 284 284 284 284 284 284 284 284 283 283 283 283 283 283 283 283 282 282 281 281 281 281 281 281 281 281 281 281 281 281 281 281 281 282 282 282 283 283 283 283 283 283 283 283 284 284 284 284 284 283 283 283 283 283 283 283 282 282 282 282 281 281 281 282 282 282 282 282 282 282 282 282 282 283 283
286 286 285 285 285 285 285 285 285 284 284 284 284 284 284 284 284 284 284 283 283 283 283 283 283 283 283 283 282 282 281 281 281 281 281 281 281 281 281 281 281 281 281 281 282 282 282 283 283 283 283 282 282 282 282 283 283 283 284 284 283 283 283 283 283 283 282 282 282 282 282 282 281 281 281 281 281 282 282 282 282 282 282 282 282 283
286 286 285 285 285 285 285 284 284 284 284 284 283 283 283 283 283 283 283 283 283 283 283 283 283 284 284 284 283 282 282 281 281 281 281 281 281 281 281 281 280 280 280 281 281 282 282 282 283 283 283 282 282 282 282 283 283 283 283 283 283 283 283 283 283 282 282 282 282 282 282 282 281 281 281 281 282 282 282 282 282 282 283 283 283 283
286 285 285 285 285 285 285 284 284 284 284 283 283 283 283 283 283 283 283 283 283 283 283 283 283 283 284 284 284 283 283 282 282 281 281 281 281 281 280 280 280 280 280 280 280 281 281 282 282 282 282 282 282 283 283 283 283 283 283 283 283 283 283 283 283 283 282 282 282 282 282 281 281 281 281 282 282 282 282 283 283 283 283 283 283 283
286 285 285 285 285 285 284 284 284 284 283 283 283 283 283 283 283 283 283 283 283 283 283 283 283 284 284 284 284 284 284 283 283 282 281 281 281 280 280 280 280 280 280 280 280 280 280 280 281 281 281 281 282 282 283 283 283 283 283 283 283 283 283 283 283 283 282 282 282 282 281 281 281 281 281 282 282 282 282 283 283 283 283 283 283 283
286 285 285 285 285 284 284 284 284 284 283 283 283 283 282 283 283 283 283 283 283 283 283 283 283 284 284 285 284 284 284 284 283 282 282 281 281 280 280 280 280 279 280 280 280 280 280 281 281 281 281 281 281 281 282 283 283 283 283 283 283 283 283 283 283 283 282 282 282 282 281 281 281 281 281 281 282 282 282 282 283 283 283 283 283 283
Wind_Speed
12 12 13 12 11 10 11 11 11 12 14 15 15 15 16 18 20 20 20 19 18 17 17 18 19 20 21 21 21 20 19 17 15 13 11 8 6 5 4 5 6 8 9 9 10 10 11 11 11 12 12 12 12 12 11 11 11 10 10 10 9 9 9 9 8 8 7 7 6 6 5 6 7 7 7 7 6 5 4 4 4 4 3 3 3 2
12 12 12 12 11 10 11 11 12 13 15 16 16 16 17 19 20 20 20 19 18 18 18 19 20 20 21 20 20 19 17 16 14 12 10 8 6 5 6 7 8 9 10 10 11 11 11 11 11 12 13 13 13 13 13 13 12 12 12 11 11 10 9 8 8 7 7 7 7 7 7 7 7 7 7 7 6 6 5 4 5 5 4 4 3 2
12 12 12 12 12 11 12 12 13 14 15 16 17 17 18 19 20 19 19 19 19 19 19 20 20 21 21 20 18 17 16 14 13 11 9 8 6 6 7 8 9 10 10 11 11 11 11 10 10 11 11 12 12 12 12 12 12 12 12 11 11 10 9 8 8 7 7 7 8 8 8 8 7 7 7 7 6 6 5 5 5 5 5 4 4 2
11 12 12 12 12 12 12 13 14 15 16 16 16 17 18 19 20 20 20 20 20 20 21 21 21 21 21 19 17 15 14 13 12 10 9 8 7 7 7 8 9 10 10 11 11 11 10 10 10 10 10 11 11 11 11 11 11 11 11 10 10 9 9 8 8 8 8 8 9 9 9 8 8 7 7 7 7 6 5 5 5 5 5 5 4 3
11 12 12 12 11 11 12 13 14 15 16 16 16 17 18 20 21 21 21 21 21 22 22 22 22 21 20 19 16 14 13 12 11 10 9 8 7 7 7 9 9 10 10 10 10 10 10 9 9 9 9 10 10 10 10 10 11 10 10 9 9 9 9 8 8 9 9 9 10 10 9 9 9 8 8 8 7 7 6 6 5 5 5 5 5 4
10 11 12 12 12 12 13 14 15 16 17 17 17 18 19 20 21 21 21 21 22 22 23 23 22 21 20 18 16 14 13 11 10 10 9 8 8 8 8 9 10 10 10 10 10 10 9 9 9 9 9 9 9 9 9 9 10 10 9 9 9 9 10 10 10 10 10 10 11 11 11 11 10 10 10 9 9 8 7 6 6 5 5 5 5 5
9 11 12 13 13 14 14 15 16 17 18 18 19 19 19 20 20 20 21 21 22 22 23 23 22 22 20 18 16 14 13 12 11 10 9 9 8 8 8 9 10 11 11 10 10 10 9 9 9 8 8 8 8 8 8 8 9 9 9 9 9 10 11 11 11 11 11 12 12 12 12 12 12 12 11 11 10 9 8 7 6 5 4 4 5 5
10 11 13 14 14 14 15 15 16 17 18 19 19 18 18 18 19 19 20 21 21 22 22 22 22 22 21 19 17 16 14 13 12 11 10 9 9 9 9 9 10 11 11 10 10 9 9 8 8 8 7 7 7 7 7 7 8 8 8 9 9 10 10 11 11 12 12 12 12 12 12 12 12 12 11 11 11 10 9 8 6 5 4 3 4 4
12 12 13 14 15 15 14 14 15 17 18 19 19 18 17 17 17 18 19 19 20 20 21 22 22 22 21 20 18 16 15 13 12 11 10 10 10 9 9 10 10 11 11 11 10 9 9 8 8 7 7 6 6 6 6 6 6 7 7 7 8 8 9 9 10 10 10 10 9 9 9 9 9 9 10 10 10 10 10 9 7 6 4 3 3 3
13 13 13 14 15 15 14 14 14 16 18 18 18 18 18 17 17 17 17 17 18 20 21 21 22 21 21 20 18 17 16 14 13 12 11 10 10 10 10 11 12 12 12 11 10 9 9 8 7 7 6 6 6 5 5 5 5 5 5 6 6 6 7 7 8 7 7 7 6 6 5 5 6 6 7 8 8 9 10 9 9 7 5 4 3 3
12 13 12 13 13 14 14 14 15 16 17 17 17 17 17 18 18 18 16 16 18 19 20 21 21 21 20 19 18 18 17 16 15 14 13 12 11 11 11 12 13 13 13 12 11 10 9 8 8 7 6 6 6 5 5 4 4 4 5 5 5 5 5 6 6 5 5 4 4 4 3 3 3 3 4 5 6 7 9 9 9 8 7 6 4 3
11 12 12 13 13 13 13 14 16 17 17 16 14 13 14 17 19 18 17 17 18 19 20 20 21 21 20 19 18 18 17 16 16 15 15 14 14 14 14 14 14 14 13 12 11 10 10 9 8 7 7 6 6 6 5 5 5 5 5 6 5 5 5 4 4 4 4 4 4 4 4 3 2 1 1 2 4 5 7 9 9 9 8 7 5 4
12 12 12 13 13 13 13 14 16 17 17 16 14 13 14 17 18 18 17 18 19 19 20 21 20 20 20 20 19 18 17 17 16 16 16 16 16 17 17 17 16 15 14 13 13 12 11 10 9 8 7 7 7 7 6 6 6 6 6 6 5 4 4 3 3 3 4 4 5 4 4 3 3 2 2 2 2 4 5 7 8 8 8 7 6 4
11 12 12 12 12 13 14 15 16 16 16 17 16 15 15 17 18 17 16 16 18 19 20 20 19 19 19 20 19 18 17 17 17 17 17 18 18 19 19 19 18 17 16 15 15 14 13 11 10 9 8 8 8 8 8 7 7 7 6 5 4 3 3 3 3 3 4 5 5 5 5 4 4 3 3 3 3 3 4 5 6 7 7 7 6 5
12 12 11 10 11 12 13 14 15 16 16 17 16 15 14 16 18 17 16 15 16 18 19 18 17 17 17 19 20 20 18 17 16 17 17 19 20 20 21 20 19 19 17 16 15 14 13 12 10 9 9 8 9 9 9 8 8 7 6 4 3 3 3 3 3 4 4 5 5 5 5 5 4 4 4 3 4 4 4 5 6 6 7 6 6 5
12 12 11 11 11 12 13 14 15 15 15 16 16 14 14 16 18 18 17 16 17 18 17 15 12 12 14 18 20 21 19 17 15 16 17 19 20 21 21 21 20 19 18 16 15 14 12 11 10 10 9 10 10 10 9 8 8 7 5 3 3 3 4 4 4 4 4 5 5 5 5 5 5 4 4 4 4 4 4 5 6 6 6 6 6 6
13 12 12 11 11 12 13 14 15 15 15 16 17 16 16 17 18 19 18 18 18 17 16 15 11 7 8 13 18 22 21 18 15 14 16 18 20 21 22 21 20 19 18 16 15 13 12 11 10 10 10 11 11 10 9 9 8 6 4 3 4 4 5 5 4 4 4 5 5 5 5 5 5 5 4 4 4 4 4 5 5 6 6 6 6 6
13 13 12 12 12 12 13 14 15 16 16 17 18 18 18 18 19 20 20 20 18 17 16 15 12 9 8 8 15 22 23 20 16 13 14 16 19 21 21 21 20 19 17 16 14 13 12 11 11 11 11 11 11 10 9 8 7 5 4 4 5 5 5 5 4 4 4 5 5 5 5 5 5 5 5 4 4 4 4 4 5 5 5 5 5 6
13 14 13 13 13 13 14 14 15 16 17 18 19 18 17 17 19 20 21 20 19 18 17 15 14 13 11 10 15 23 25 22 17 13 12 13 17 21 21 20 19 17 16 15 15 14 13 12 12 11 11 11 10 9 8 7 6 5 5 5 5 6 5 5 4 4 4 5 5 5 5 5 5 5 5 4 4 4 3 3 4 5 5 5 5 5
13 14 14 14 14 13 14 14 16 17 19 20 20 19 18 18 19 20 20 20 20 19 18 16 14 12 11 11 15 22 26 23 18 13 12 11 15 20 21 19 17 16 14 15 15 15 13 13 12 12 11 11 10 9 8 7 6 6 6 6 6 6 5 5 4 4 4 4 5 5 5 5 5 5 5 5 4 4 4 3 3 4 4 5 5 5
13 13 14 14 13 13 13 14 16 18 20 21 21 20 19 19 19 19 19 19 19 18 17 15 13 12 11 13 16 21 25 25 20 14 11 10 13 17 20 19 17 15 14 14 15 15 14 13 12 12 11 10 10 9 8 7 7 7 7 6 6 6 6 5 5 4 4 4 5 6 5 5 5 5 6 6 5 5 4 4 4 4 4 4 5 5
12 12 12 13 13 13 13 13 15 17 20 21 21 21 20 19 19 19 19 19 18 17 15 13 12 12 13 15 17 20 25 27 22 15 11 9 9 13 19 19 18 16 13 12 14 15 14 13 12 11 11 10 10 9 8 8 8 7 7 7 6 6 6 6 5 5 4 5 6 6 6 6 6 6 6 6 6 6 6 5 5 4 4 4 5 4
12 11 11 11 12 12 12 12 14 16 19 21 22 22 22 22 21 20 20 19 18 18 17 15 15 14 14 15 16 19 24 27 24 17 12 9 8 11 17 19 18 16 12 12 12 13 13 12 11 11 11 10 10 10 9 9 9 8 8 7 6 6 6 6 5 5 4 5 6 6 6 6 6 6 6 7 7 7 7 6 5 5 4 4 4 5
13 11 10 10 11 12 12 13 14 16 17 19 20 20 21 21 21 20 20 20 20 20 19 18 15 13 12 13 15 19 24 27 25 18 12 9 9 11 16 18 18 15 12 12 12 12 11 11 11 11 11 10 10 10 10 10 10 9 8 7 6 6 6 6 5 4 4 6 7 6 6 6 6 6 6 6 7 7 7 7 6 6 5 4 4 4
13 11 10 10 11 12 13 13 14 15 16 18 19 19 19 19 19 19 20 20 21 20 19 16 12 10 10 11 15 19 23 27 25 20 12 9 8 10 14 16 16 15 12 12 12 12 10 10 11 11 10 10 10 10 11 11 11 10 9 8 6 6 6 6 5 4 5 6 7 7 6 6 6 5 5 5 5 6 6 6 6 6 6 5 5 5
13 13 11 11 11 12 13 14 14 14 15 17 19 20 20 20 19 19 19 19 19 19 17 14 10 8 9 10 12 16 22 26 26 22 14 10 9 11 13 15 16 14 11 11 12 11 10 9 10 10 10 10 11 11 11 11 11 11 10 8 7 6 7 6 6 5 5 6 7 6 6 5 5 4 4 3 4 4 4 5 6 6 6 5 5 4
15 14 13 12 11 12 13 14 14 14 15 16 18 20 20 20 20 19 18 19 20 19 16 12 9 7 8 8 9 13 20 25 27 24 17 12 10 10 12 15 15 14 11 10 9 9 8 8 8 9 10 11 11 11 11 11 11 11 10 9 8 7 7 7 6 6 6 6 6 6 5 5 4 4 3 3 3 3 3 4 4 4 4 3 2 1
15 14 14 13 12 12 12 13 14 14 14 15 17 19 20 21 20 19 17 19 20 18 15 12 9 7 7 8 9 12 18 23 26 25 20 13 9 9 13 15 15 13 10 8 8 9 9 8 8 8 9 11 11 11 10 10 10 10 10 10 9 8 8 8 7 7 7 6 6 6 5 5 4 4 4 3 3 3 3 3 3 3 3 3 2 1
13 13 13 12 12 11 12 12 13 13 14 15 16 18 20 21 20 18 18 19 19 17 14 13 11 10 9 9 10 11 14 19 24 26 23 15 9 9 12 14 15 13 11 9 8 8 9 9 9 9 10 11 11 10 10 9 9 9 10 10 9 8 8 8 8 8 7 7 7 6 6 6 5 5 4 4 4 3 3 4 4 4 3 2 1 1
10 10 11 11 11 11 12 12 12 12 13 14 16 17 19 19 18 17 18 19 19 16 14 13 12 12 11 10 9 7 8 15 22 26 24 16 11 10 12 14 15 14 12 10 7 5 6 8 9 10 10 11 10 10 9 9 9 9 9 9 9 9 9 9 9 8 8 8 8 7 7 7 6 6 5 5 5 4 4 4 4 3 2 1 1 2
9 9 10 10 11 12 12 13 13 13 13 14 15 16 16 15 15 15 16 18 18 16 14 13 13 14 14 10 6 3 5 13 21 25 24 17 12 11 14 15 15 15 14 11 7 4 3 6 9 11 12 11 11 10 9 9 9 9 9 9 10 10 11 11 11 10 10 9 9 9 8 8 7 7 6 6 5 5 5 5 5 4 4 3 2 3
11 11 11 12 12 13 14 14 15 15 15 15 15 16 16 15 14 14 16 18 18 16 15 14 15 16 16 12 8 5 7 14 21 25 24 18 13 12 14 15 16 17 16 13 9 5 2 5 7 9 11 11 11 10 10 10 10 11 10 11 12 13 13 13 13 12 11 11 10 10 9 8 8 7 6 6 6 6 6 5 5 5 5 4 3 3
12 12 12 13 13 14 14 15 15 16 16 16 16 16 16 15 14 15 16 17 17 16 15 16 16 16 15 13 9 8 9 15 21 24 25 20 15 13 14 15 17 18 18 15 10 6 4 5 7 8 9 10 10 10 10 11 13 13 12 12 13 14 15 14 14 13 12 12 11 11 10 9 8 7 6 6 6 6 7 7 7 6 7 6 6 5
12 12 13 13 13 13 14 14 15 15 15 15 15 16 16 15 15 15 16 17 16 15 15 16 17 16 14 12 9 8 10 15 19 23 24 22 17 14 16 16 17 18 18 15 11 7 6 7 8 7 7 8 9 10 11 13 15 16 15 13 13 14 15 15 14 13 12 12 12 12 11 10 9 8 8 7 7 7 8 8 8 8 8 8 8 7
12 12 12 12 13 13 13 13 13 13 13 14 14 15 15 15 15 15 16 17 17 16 15 14 15 15 13 12 10 10 12 14 17 21 23 23 20 17 17 17 17 18 18 15 11 8 6 7 8 8 7 7 8 9 11 14 16 17 17 15 14 13 14 15 14 13 12 12 12 12 11 11 10 10 10 9 9 9 9 9 9 9 9 10 9 9
11 11 11 12 12 12 12 12 13 13 13 13 14 14 14 15 15 16 17 18 17 17 16 15 15 14 13 12 11 12 14 15 16 19 22 23 22 19 17 17 18 19 17 15 12 10 8 8 8 8 8 7 7 7 10 14 17 18 18 17 16 14 14 15 15 14 12 11 11 10 10 10 10 11 11 11 11 10 10 10 10 10 10 10 11 11
11 11 11 12 12 12 12 12 13 13 14 14 14 14 15 15 16 16 17 17 17 17 16 15 15 14 13 12 12 12 13 13 14 17 20 22 22 19 17 17 17 18 18 16 13 12 10 9 8 8 8 7 7 7 10 13 16 18 19 19 17 16 15 15 15 15 14 13 11 10 9 9 10 11 11 12 13 12 11 11 11 11 11 11 11 11
12 12 12 12 12 12 12 12 12 13 14 14 15 15 15 15 15 16 16 16 16 16 15 15 14 14 13 12 11 10 9 10 12 15 19 21 21 18 17 17 17 17 17 16 15 13 12 10 8 7 7 7 7 8 11 13 15 16 18 19 19 18 17 17 17 17 16 15 14 12 11 11 11 12 12 13 14 14 13 12 12 11 11 12 12 12
12 12 12 12 12 12 12 12 12 13 14 15 16 16 16 15 15 15 15 15 15 15 14 14 14 13 13 12 10 9 8 9 11 15 18 20 20 18 17 17 17 16 16 15 15 14 13 11 9 8 8 7 7 8 10 12 13 15 15 16 17 18 19 19 19 19 18 17 16 15 14 14 14 14 14 14 15 14 13 12 11 11 11 11 11 12
13 12 12 12 12 12 12 12 13 14 16 17 17 17 16 16 15 14 14 14 14 13 13 13 13 12 12 11 10 9 9 10 13 15 18 19 19 17 16 16 17 17 17 16 14 13 12 11 9 9 9 8 8 8 9 10 12 13 13 13 13 14 17 18 19 19 18 18 17 16 16 16 15 15 15 15 15 14 13 11 10 9 9 10 10 10
13 13 12 12 12 12 12 13 15 16 17 17 17 16 16 16 15 15 14 14 13 13 12 12 12 12 11 11 10 10 10 12 14 16 17 18 18 17 15 15 16 17 17 16 15 13 12 9 8 8 8 8 8 9 9 10 11 12 12 12 11 11 13 14 15 16 16 16 16 16 16 16 15 15 15 14 14 13 11 10 9 9 10 10 10 10
13 13 13 13 13 13 14 15 16 16 17 17 17 17 16 16 16 16 15 15 14 13 13 13 13 13 12 12 11 11 11 12 14 15 16 17 17 16 15 14 14 16 17 16 15 13 11 9 7 7 7 7 8 8 9 9 11 12 12 11 10 8 7 9 11 12 13 14 14 14 14 14 14 13 13 12 11 10 10 9 9 10 11 11 11 11
13 13 13 14 14 15 16 16 16 17 17 17 17 16 17 17 16 16 16 15 15 15 14 14 14 14 14 14 13 12 12 13 14 14 15 15 15 15 14 13 13 14 15 15 14 12 11 9 8 7 6 7 7 8 8 9 10 11 12 11 10 8 5 7 9 11 11 12 12 12 12 11 11 10 10 9 9 9 9 9 10 11 11 12 12 11
14 14 14 15 16 16 16 17 17 17 17 17 16 16 16 16 16 15 15 14 15 15 14 14 14 13 13 13 13 13 13 13 14 14 14 14 13 13 13 13 13 13 13 13 12 11 10 9 8 7 7 7 7 7 8 9 9 10 11 11 11 10 8 7 8 10 10 10 10 10 9 9 8 8 9 9 9 9 10 10 10 10 10 11 11 11
14 15 15 16 17 17 17 17 17 17 17 16 16 16 16 16 15 14 14 14 14 14 14 14 13 12 10 10 11 13 13 14 14 13 13 13 13 12 12 12 12 13 13 12 11 10 9 8 8 8 8 9 8 8 7 8 8 9 10 10 11 11 10 8 7 8 9 9 8 8 8 8 8 9 9 10 10 10 10 10 10 10 10 10 10 10
16 16 16 17 17 17 16 17 17 16 16 15 15 15 15 15 15 14 13 13 14 14 14 13 12 11 10 10 11 12 12 13 13 14 13 13 12 12 12 12 12 12 12 11 10 9 8 8 8 8 9 9 9 9 9 8 8 8 8 9 10 11 11 9 8 8 8 7 7 7 7 8 9 10 10 10 9 9 9 9 9 10 10 10 10 10
17 17 17 17 17 16 16 16 16 15 14 14 14 15 15 15 15 13 13 13 14 14 14 13 11 10 10 11 11 11 11 11 12 13 14 13 13 12 12 12 12 12 13 13 12 10 9 8 8 8 9 9 9 9 10 9 9 9 8 9 9 10 10 10 10 10 9 8 8 8 9 9 9 9 9 8 8 8 8 8 9 9 9 9 9 10
18 17 17 17 16 16 15 16 15 15 14 14 14 14 15 16 15 14 13 13 14 14 13 12 11 10 10 11 11 12 12 11 12 13 14 14 14 13 13 12 12 12 12 13 13 13 12 12 11 10 10 9 8 8 9 9 10 10 9 9 9 9 9 9 10 10 10 10 10 10 11 10 9 8 7 6 6 7 7 8 8 8 9 9 9 9
17 17 17 17 16 16 15 16 16 15 14 14 14 15 15 16 15 14 14 14 14 14 13 13 12 11 10 10 11 11 11 11 11 12 13 14 14 14 13 13 12 12 12 12 12 12 12 12 12 13 12 11 9 8 8 8 9 9 9 9 9 9 9 8 8 9 10 11 11 12 12 11 9 7 6 6 6 7 7 7 8 8 8 8 8 8
17 17 17 16 16 16 16 16 16 15 15 15 15 16 16 16 15 14 14 14 14 14 13 13 12 11 10 11 11 11 12 12 11 11 12 13 14 14 14 14 13 12 11 10 10 9 9 10 11 13 14 14 12 11 9 8 8 9 9 9 10 9 9 8 8 8 9 10 11 12 11 11 10 9 8 7 7 7 7 7 8 8 8 8 8 8
17 17 17 17 16 16 16 16 16 16 16 15 16 16 17 16 15 15 14 14 14 13 13 13 12 11 11 11 11 12 12 12 12 12 12 13 14 14 14 14 13 12 10 8 7 6 6 6 7 9 12 15 15 14 13 11 9 9 9 9 10 10 9 9 8 8 9 9 10 10 10 10 10 10 10 9 8 7 7 7 7 7 7 7 7 7
Wind_Direction
232 236 242 246 245 242 241 242 236 226 221 220 220 217 210 202 199 200 202 205 207 209 209 205 201 200 202 205 207 210 211 211 210 209 210 210 206 194 175 163 160 162 164 164 164 162 159 155 152 150 149 149 148 146 146 145 144 142 141 139 139 142 144 144 144 146 150 157 165 177 192 205 213 214 210 207 204 202 203 209 207 199 185 173 154 113
235 237 240 244 243 238 233 233 227 219 215 213 212 209 204 198 196 197 199 200 201 203 203 201 199 198 198 200 202 203 204 203 203 203 204 202 194 179 165 163 165 168 171 170 170 169 167 164 161 158 156 154 153 152 152 150 149 148 146 143 143 144 145 147 149 152 158 168 179 189 200 210 215 215 211 209 207 205 208 213 213 207 199 191 177 146
230 231 233 237 236 230 221 219 216 213 212 210 208 204 199 195 194 195 196 196 196 196 196 195 194 194 193 194 194 195 196 197 197 198 198 194 184 170 164 166 170 174 175 174 174 174 174 172 169 167 164 162 161 160 160 159 159 158 157 157 157 157 161 166 171 177 182 189 197 204 210 215 217 216 212 210 208 209 213 219 218 215 211 204 194 183
222 220 222 227 226 221 216 210 206 206 207 207 204 199 194 192 192 193 194 194 193 192 191 190 189 189 188 188 188 189 191 193 194 195 192 186 176 167 166 170 175 178 179 177 177 178 179 179 177 174 172 171 170 170 169 170 170 170 171 172 173 176 179 185 192 199 205 210 214 218 221 223 222 220 216 213 212 213 218 223 223 222 220 212 204 200
215 214 216 214 209 206 208 203 200 199 201 199 195 191 190 191 193 193 193 193 191 189 187 186 185 185 184 185 183 182 183 187 189 189 185 178 171 167 169 174 178 181 180 179 179 180 182 182 182 181 180 180 180 181 183 184 185 186 187 189 193 196 201 206 212 218 223 226 229 231 233 234 233 230 227 223 220 220 221 224 226 227 226 220 214 211
208 206 207 202 196 193 195 194 194 194 192 190 188 188 189 192 194 193 191 190 188 186 184 182 182 182 182 181 176 172 174 178 181 181 177 173 170 170 173 176 181 182 180 179 179 180 182 183 184 185 187 188 192 196 199 201 202 203 204 207 210 215 219 224 229 234 238 241 243 245 246 246 245 243 240 236 231 227 225 225 225 228 230 227 222 219
198 196 195 192 191 191 190 189 190 190 187 184 184 186 189 191 192 191 189 188 186 184 182 180 179 179 178 176 170 165 167 170 172 173 172 170 170 172 174 178 182 183 180 177 177 178 180 183 185 188 191 195 200 206 210 212 215 216 217 220 223 228 232 236 241 245 249 252 254 255 255 255 253 251 247 243 237 232 227 224 222 225 229 231 228 223
183 185 186 185 187 188 187 187 188 189 188 184 181 181 183 186 187 188 188 187 185 182 180 178 176 176 174 172 168 166 166 166 167 169 170 170 172 174 175 179 183 184 181 177 176 177 179 181 185 188 191 195 200 206 212 216 220 223 226 229 233 237 241 245 249 252 255 257 258 259 258 257 255 252 248 244 239 232 225 219 215 215 222 229 229 225
181 178 183 187 185 181 179 183 187 189 189 187 183 179 176 176 179 182 183 182 182 180 178 175 173 172 172 170 168 167 167 168 171 172 173 174 176 177 178 180 183 184 183 179 177 177 178 180 182 184 187 191 196 204 213 220 227 232 235 239 242 246 249 252 255 257 258 257 256 255 255 254 252 249 245 241 236 229 222 214 207 203 206 212 217 218
188 181 181 188 190 186 178 178 184 188 189 189 188 185 180 175 172 173 174 176 178 178 176 174 172 170 171 170 169 167 168 171 174 175 176 178 180 181 182 182 184 185 184 181 179 179 180 180 180 181 184 190 199 209 221 232 241 248 253 256 257 258 259 260 260 258 254 248 244 241 242 244 245 243 240 236 230 224 216 208 201 196 193 191 193 197
185 183 179 182 187 189 183 180 181 184 186 186 187 188 187 182 177 171 168 171 175 175 175 175 174 172 170 170 171 172 172 174 175 177 178 178 179 180 183 183 185 185 184 182 182 183 183 182 181 182 187 196 208 222 235 247 259 268 275 277 277 273 271 267 262 255 242 228 217 211 211 218 228 236 235 230 223 216 209 203 199 194 188 182 178 180
180 179 178 177 177 179 181 180 180 180 181 180 180 184 188 188 186 181 175 174 174 174 173 175 176 175 173 172 174 176 178 178 177 178 178 178 178 179 180 179 179 179 178 179 180 182 184 184 185 189 195 207 221 236 249 260 271 280 286 288 287 282 276 269 259 244 222 203 191 184 182 178 178 190 208 213 210 205 202 199 197 195 189 182 176 173
180 177 175 174 174 175 174 173 173 175 178 179 182 185 189 190 189 186 183 180 178 176 176 175 176 177 179 178 177 177 179 179 180 180 179 179 179 179 178 174 171 169 170 174 177 181 184 185 189 195 205 218 232 247 259 270 278 285 289 291 287 280 270 260 246 228 206 190 182 176 171 161 149 140 138 146 169 184 189 192 193 192 189 183 177 172
176 172 170 172 176 178 176 173 173 176 183 188 191 191 189 188 187 185 183 181 181 181 180 177 176 178 180 180 179 178 178 180 181 182 181 180 180 179 177 174 171 169 171 176 181 185 188 190 194 201 215 228 242 254 265 273 280 285 288 287 278 263 249 238 228 216 200 187 180 175 168 157 143 132 128 127 135 149 165 175 180 182 182 180 177 172
174 169 171 176 181 184 183 182 183 187 191 193 193 191 186 184 183 182 179 176 177 179 179 178 178 180 181 181 181 180 179 180 182 183 183 184 184 183 180 177 176 177 179 183 186 191 196 200 205 213 225 237 247 257 266 273 279 283 284 277 257 233 221 220 220 215 201 188 180 174 167 156 144 135 131 129 130 136 147 156 161 167 171 174 173 170
179 175 179 184 188 190 192 191 192 194 195 194 191 186 180 179 180 181 179 174 172 173 173 171 174 183 191 191 187 184 181 180 182 184 185 186 187 187 186 182 180 183 187 190 194 198 204 211 220 228 236 243 251 258 263 269 275 277 274 254 222 207 208 215 220 219 206 190 180 173 165 158 151 144 138 135 134 137 144 149 153 158 163 169 172 174
188 187 190 193 195 195 195 195 197 198 196 192 190 188 185 182 182 181 178 174 171 171 175 176 176 183 197 201 195 190 185 180 180 184 187 188 189 190 191 187 184 186 192 197 201 206 213 221 230 238 243 248 252 256 259 262 265 264 251 219 200 199 207 216 223 222 209 193 181 173 168 164 160 154 148 143 142 145 151 154 156 157 160 164 171 175
196 196 199 201 202 199 195 194 197 199 196 192 191 190 189 187 184 181 179 176 174 175 181 184 187 190 189 195 202 199 190 181 176 177 183 188 191 192 192 191 190 191 195 201 208 215 222 230 236 242 246 249 252 253 254 254 252 242 217 197 195 202 211 218 221 219 209 195 184 177 172 170 167 162 157 153 152 156 161 165 167 167 166 168 172 176
203 202 204 207 207 203 197 194 195 195 193 190 188 187 185 184 183 182 181 180 180 181 184 188 193 196 196 193 199 200 194 183 176 173 175 185 192 193 192 193 194 197 201 207 215 222 228 234 239 244 246 249 250 249 248 243 232 213 194 191 196 203 210 213 215 213 209 197 186 178 173 172 170 167 164 161 160 161 165 171 178 179 178 177 178 179
207 206 207 209 208 205 201 199 198 197 194 192 189 185 182 180 181 183 184 185 186 187 188 189 193 196 193 185 191 196 195 187 178 171 172 181 191 194 194 195 197 201 206 215 221 226 231 236 240 243 245 246 245 242 236 225 209 195 190 193 198 203 206 209 213 214 211 195 183 175 171 169 170 168 167 164 162 159 159 162 170 178 183 183 182 182
213 211 212 210 208 207 206 204 203 201 198 193 188 185 183 181 182 184 186 186 186 188 188 190 192 191 187 182 186 193 193 187 179 170 170 176 189 196 197 198 200 204 209 219 226 229 232 236 239 241 242 240 238 232 222 208 196 190 192 196 199 201 204 208 213 217 212 191 177 171 170 170 170 171 171 170 168 167 166 165 166 172 178 181 182 183
218 216 214 210 210 210 210 206 203 201 199 194 189 187 186 184 183 184 185 184 184 185 186 186 185 184 186 185 187 190 191 188 183 174 169 169 185 198 201 201 202 204 206 217 226 230 232 234 237 238 237 235 230 222 211 199 192 191 193 196 197 199 201 208 216 221 211 185 172 170 174 176 176 177 179 182 183 183 182 180 177 176 177 179 178 178
222 221 218 215 213 211 209 202 199 199 200 198 196 195 195 191 188 186 184 183 182 182 181 180 180 182 186 188 188 188 189 188 186 179 171 170 181 195 202 203 203 201 202 213 223 229 231 233 235 234 233 230 224 216 206 197 192 192 193 194 194 196 200 209 218 220 203 179 171 173 178 182 185 188 192 195 198 199 199 196 192 187 184 180 177 175
225 227 225 219 212 208 204 198 195 196 197 199 200 201 200 198 194 191 187 185 183 182 181 180 178 177 181 185 185 185 188 188 185 180 175 175 180 190 199 201 199 196 198 210 220 226 230 231 232 231 228 224 219 212 205 199 195 194 193 192 193 195 199 208 215 212 192 176 173 176 182 187 192 197 202 207 209 211 211 209 205 201 196 191 185 179
223 223 220 211 205 203 203 202 200 198 196 197 197 197 196 193 191 188 186 184 182 181 178 172 163 158 167 175 179 183 187 188 185 180 176 174 170 178 194 197 194 191 194 209 219 225 228 229 228 226 223 219 215 211 206 203 200 197 195 192 192 196 199 205 209 201 183 175 175 179 185 190 195 200 205 210 214 215 215 213 211 209 207 206 202 195
215 214 211 205 202 204 208 211 211 208 204 201 198 195 192 188 185 182 180 179 178 175 169 162 156 155 161 166 175 183 187 188 185 181 177 169 161 168 185 191 189 186 191 206 217 222 222 223 223 222 218 215 212 209 208 207 206 203 198 194 193 197 199 200 200 193 181 177 178 182 186 189 192 194 196 200 203 205 206 209 211 213 215 214 212 208
216 217 217 215 214 215 217 218 218 215 212 208 204 200 194 187 180 175 171 174 175 172 166 165 164 162 160 164 175 185 189 188 186 184 181 172 162 165 178 184 183 182 185 198 208 210 205 204 209 213 213 213 211 209 208 209 210 208 203 196 196 199 199 197 194 190 185 182 182 185 186 185 185 186 187 188 186 185 185 192 199 202 202 195 187 199
220 221 223 224 224 223 221 219 216 212 210 207 206 202 196 187 177 171 172 176 176 174 172 174 170 162 163 168 174 183 189 189 188 187 186 179 166 164 179 181 179 176 173 176 186 190 184 183 188 197 207 213 213 210 209 211 213 211 206 198 195 197 199 196 193 190 188 187 187 188 188 189 190 191 193 192 185 176 171 171 169 161 147 131 117 115
218 219 220 221 221 217 211 206 202 201 201 201 200 198 194 188 181 177 179 178 176 174 177 179 175 168 164 160 162 172 186 192 193 191 189 182 170 169 181 178 175 172 165 158 164 176 182 184 188 195 205 213 215 213 212 213 214 211 204 196 193 195 198 196 193 190 189 188 188 188 189 190 192 194 197 198 194 185 177 170 158 141 125 116 133 196
201 203 203 203 201 196 189 184 182 183 187 189 190 190 189 187 185 183 182 179 176 176 179 179 174 165 156 148 146 159 184 196 196 194 189 182 172 172 178 175 173 171 166 154 147 160 185 196 201 206 211 215 217 216 215 215 211 203 195 188 189 193 196 194 191 188 187 186 186 187 187 188 190 193 197 200 200 198 195 188 173 158 150 167 208 223
171 171 170 170 170 169 167 165 164 165 169 174 177 179 180 182 183 184 183 180 179 179 179 175 169 163 158 152 150 161 186 195 195 194 189 183 176 174 176 173 173 174 171 162 155 153 176 191 205 215 219 221 221 220 217 211 200 188 180 179 183 189 191 190 188 187 188 189 190 191 191 193 195 197 201 205 208 210 210 206 195 181 174 189 217 233
152 150 148 148 149 151 152 153 154 156 160 165 170 173 176 177 179 180 180 180 180 180 179 173 168 166 166 168 170 173 176 189 192 192 188 182 176 176 180 175 174 175 175 171 166 159 153 164 186 204 215 220 222 221 215 203 188 177 172 178 184 187 189 189 190 192 195 197 200 201 203 205 207 211 216 222 225 227 228 226 217 202 191 194 207 222
148 145 144 144 145 146 147 150 152 156 160 165 170 174 176 177 177 178 179 178 179 181 180 174 169 167 170 173 172 167 170 185 190 191 187 182 176 173 178 177 176 177 177 175 170 159 145 144 157 175 194 207 214 215 209 197 184 175 173 181 187 191 192 193 196 199 203 206 209 212 214 217 222 227 235 240 244 245 244 243 236 226 215 208 207 213
150 148 147 147 146 147 149 152 154 157 162 167 172 176 178 178 178 178 177 177 178 180 182 179 174 170 170 170 164 159 168 183 190 191 189 186 181 175 176 176 177 178 178 178 173 157 138 137 142 150 164 183 198 205 204 195 186 180 179 182 188 193 195 197 199 203 209 214 217 220 224 228 232 238 243 247 251 252 252 250 247 242 235 227 221 218
154 153 152 151 150 150 151 153 155 158 161 166 170 174 177 177 177 177 177 177 177 178 178 178 177 176 174 173 167 164 171 183 188 189 191 191 188 182 177 177 179 179 178 178 174 160 140 140 144 147 149 161 180 196 201 197 191 187 187 187 189 193 197 199 201 204 211 217 223 229 235 240 244 248 250 252 253 254 254 253 251 248 244 240 235 230
158 157 157 156 154 153 153 153 154 156 158 162 166 169 172 174 174 175 176 178 179 178 177 177 177 177 178 179 179 180 183 186 187 188 191 195 195 189 179 179 181 181 178 177 175 168 157 151 152 153 153 155 166 185 198 200 197 195 195 196 196 197 200 203 204 206 210 218 226 234 243 250 254 257 257 258 258 258 258 257 255 252 249 246 243 239
163 162 162 161 159 156 155 155 155 156 157 158 161 164 167 170 171 173 176 178 180 181 180 179 179 179 180 183 188 192 194 192 189 188 191 195 197 193 184 182 183 183 180 176 175 172 164 158 158 162 165 167 170 177 188 199 201 200 201 203 204 206 209 212 214 215 217 221 227 234 241 248 253 256 259 261 263 264 263 261 258 255 253 250 246 243
167 166 166 165 163 160 158 157 157 158 159 159 161 163 166 168 170 172 174 177 180 182 182 182 181 182 184 188 193 198 201 196 191 189 190 193 195 193 187 181 181 183 183 180 177 173 166 161 162 168 178 182 179 179 185 194 199 202 205 208 211 215 220 223 225 226 228 231 234 237 240 243 246 250 255 261 265 268 269 267 263 258 254 251 248 245
169 167 166 166 165 163 161 159 159 161 163 164 165 166 167 168 169 170 172 175 179 182 183 183 183 184 187 190 194 196 195 190 187 186 187 189 190 191 188 181 177 178 181 181 180 177 171 168 169 173 179 181 178 179 186 192 195 198 203 209 215 221 226 230 233 235 237 239 241 241 242 244 246 249 254 260 266 269 272 272 270 265 258 253 250 247
169 167 166 166 165 163 161 159 161 165 167 168 169 168 168 167 166 168 170 173 176 178 181 183 183 184 186 188 189 188 185 182 181 183 184 185 187 188 187 183 179 178 179 179 179 178 176 175 177 180 181 180 176 174 178 186 191 193 195 199 210 221 228 233 236 239 241 243 243 243 243 245 248 251 255 260 264 268 269 269 267 262 257 251 248 245
168 166 164 164 161 158 157 161 165 169 171 170 168 166 165 165 164 164 165 167 169 170 173 175 176 177 178 179 179 178 176 175 177 179 181 183 185 186 186 185 184 183 181 180 178 177 175 176 180 184 186 182 178 175 177 181 185 188 189 192 201 214 225 233 238 240 242 243 243 243 244 246 248 251 255 259 263 266 265 261 252 247 247 246 243 239
169 167 164 161 158 157 160 164 168 170 171 168 165 163 164 165 164 162 161 159 159 161 164 165 163 160 159 160 163 165 166 168 171 174 178 181 184 186 185 185 186 186 185 182 179 176 176 177 180 182 182 177 172 171 174 181 185 187 189 190 193 200 216 227 234 238 237 239 241 243 244 245 247 249 252 254 257 260 257 252 245 240 240 241 242 240
170 167 163 161 160 161 163 165 166 167 167 165 163 163 165 166 166 164 161 158 156 156 157 158 156 152 147 147 151 156 159 162 165 169 174 179 183 186 186 184 184 186 185 182 178 177 180 180 181 181 179 176 172 168 170 176 183 188 191 191 188 186 190 206 219 228 232 235 238 241 242 242 241 241 242 244 245 247 248 248 247 245 244 244 244 243
167 163 161 162 164 165 165 164 164 164 164 163 163 164 167 167 167 165 162 159 157 156 154 153 153 149 144 144 148 154 158 161 164 167 171 176 181 185 187 185 184 184 183 179 176 176 181 183 185 185 183 180 176 173 173 175 181 188 193 195 194 193 192 198 210 219 227 233 237 239 238 232 226 225 227 232 235 240 244 248 251 252 252 251 250 248
161 159 160 164 165 165 163 163 163 164 164 164 165 166 167 167 167 165 162 159 158 157 154 152 150 146 143 147 153 158 161 163 166 169 172 176 181 185 188 187 185 182 179 176 175 175 178 183 188 191 192 190 186 182 180 180 183 188 194 199 201 202 202 203 211 219 223 230 235 236 231 223 218 217 221 226 232 238 245 251 256 258 259 258 256 253
160 159 160 163 165 165 164 164 164 164 164 165 167 169 169 168 166 165 164 162 161 160 159 157 155 153 152 154 158 161 166 170 172 174 176 179 182 186 190 191 189 184 178 173 172 175 180 185 189 194 198 198 196 194 191 189 188 189 193 199 203 206 208 208 212 218 222 225 226 226 224 223 220 220 223 230 237 244 250 254 257 260 263 265 264 260
161 160 161 163 164 165 165 165 164 163 163 165 168 170 170 169 166 164 164 165 164 163 162 162 162 160 159 158 159 162 165 171 178 183 183 184 186 188 191 194 194 191 185 179 175 176 179 182 184 188 194 193 195 199 202 200 197 195 195 198 202 206 210 214 215 217 218 216 212 212 218 221 222 223 228 235 242 247 251 254 257 260 264 266 266 263
164 163 163 163 163 162 163 164 165 164 163 164 167 169 170 169 166 164 164 166 166 165 165 165 166 165 162 161 163 165 166 168 175 183 188 190 191 191 193 195 196 197 195 192 190 188 188 186 185 188 190 187 188 195 201 204 204 201 199 198 200 204 208 214 217 218 216 211 209 211 216 219 221 222 225 230 235 240 244 249 254 260 265 266 264 262
168 167 166 164 163 163 164 166 166 166 164 164 164 167 168 169 167 166 166 166 167 167 166 168 169 168 166 165 164 165 165 166 170 177 185 191 193 193 194 195 196 197 199 201 202 204 204 202 201 202 202 195 191 192 194 200 203 202 199 199 200 202 204 208 211 213 212 211 213 216 221 224 224 221 214 215 221 228 234 240 248 256 263 265 264 261
170 170 169 167 166 166 166 167 167 167 166 164 163 164 165 166 167 167 167 167 167 168 169 170 170 170 168 166 164 163 163 161 163 167 177 186 190 191 191 192 192 191 193 199 205 212 219 221 220 219 219 214 207 198 190 192 196 198 199 201 202 203 202 202 205 208 211 214 218 222 225 227 226 221 215 213 217 224 231 237 243 249 255 260 262 260
171 171 171 170 169 168 168 168 168 168 167 165 164 163 164 164 165 166 167 167 168 169 171 172 172 172 170 167 166 165 165 163 161 162 169 180 185 186 185 184 181 177 173 175 182 195 210 223 231 232 230 225 221 213 202 193 189 193 198 202 204 204 202 200 200 203 208 214 221 227 229 228 225 220 215 214 217 224 232 238 241 243 244 249 255 260